Temperature
30 30 29 30 31 31 30 29 27 28 29 28 26 24 22 22 22 23 23 23 22 22 21 20 19 19 19 18 18 18 18 18 18 17 17 17 17 17 17 16 16 15 15 14
30 30 31 32 31 31 30 29 28 28 29 28 26 24 23 23 23 23 23 23 22 21 20 20 19 19 19 18 18 18 18 18 18 17 17 17 17 17 16 16 16 15 14 14
31 31 32 31 31 30 29 28 29 29 29 28 26 23 23 23 23 23 24 23 22 21 20 20 20 20 19 19 19 18 18 18 18 17 17 17 16 16 16 16 15 15 14 14
31 32 32 31 31 30 29 30 30 29 28 25 25 22 22 22 23 23 24 23 23 22 21 21 20 20 19 19 19 19 18 18 18 17 17 16 16 16 16 16 15 15 14 13
31 31 31 31 31 31 30 30 29 27 25 24 24 23 23 23 23 24 24 24 24 23 22 21 21 21 20 20 19 19 18 18 18 17 17 16 16 16 15 15 15 14 14 13
31 32 31 31 32 32 31 29 26 24 22 21 24 24 24 24 24 25 25 25 24 24 23 22 22 21 21 20 20 19 18 18 18 17 16 16 15 15 15 15 14 14 14 14
30 29 29 30 30 31 30 27 24 22 21 21 25 26 26 27 28 27 26 25 25 24 24 23 22 22 21 21 20 19 19 18 17 17 16 15 15 15 14 14 14 13 13 13
28 27 28 29 30 30 29 28 26 25 25 25 26 26 27 29 29 28 27 26 26 25 24 24 23 22 22 21 20 20 19 18 17 16 16 15 15 14 14 14 14 13 13 13
29 28 29 30 31 31 29 29 29 28 28 26 25 27 27 29 28 28 28 27 26 25 25 24 23 23 22 21 20 20 18 17 17 16 16 15 15 14 14 14 13 13 13 12
31 29 30 31 31 31 30 30 29 28 26 25 24 24 26 27 28 28 28 27 27 26 25 25 24 23 22 21 20 19 18 17 17 16 15 15 15 14 14 13 13 12 12 12
31 29 30 30 28 28 29 29 29 29 28 26 24 23 27 28 28 29 28 28 27 27 26 25 24 23 22 21 20 19 18 17 16 16 15 15 14 14 13 13 13 12 12 12
31 30 29 28 28 28 29 29 29 28 27 28 26 26 29 29 30 29 29 28 28 27 26 25 24 23 22 21 20 19 18 17 17 16 15 15 14 14 13 13 12 12 12 12
30 28 27 26 24 24 25 27 29 29 29 28 27 26 28 30 30 29 29 28 28 27 26 25 24 22 21 21 20 19 18 17 17 16 16 15 14 14 13 13 12 12 12 12
30 28 27 25 24 23 24 26 28 29 28 27 27 27 27 28 29 29 29 28 28 27 26 25 23 22 21 20 20 19 18 18 17 16 16 15 14 14 13 13 12 12 12 12
28 28 28 28 28 27 27 28 29 29 29 28 28 27 28 29 29 29 29 28 27 26 25 24 23 22 21 20 19 19 18 17 17 16 16 15 15 14 13 13 13 12 12 12
27 27 27 28 29 29 29 30 30 30 30 30 29 28 29 29 29 29 28 28 27 26 25 24 23 22 21 20 19 18 18 17 17 16 15 15 14 14 14 13 13 13 12 12
27 26 26 27 28 29 28 29 30 30 30 29 29 29 29 29 29 28 28 27 27 26 25 24 23 22 21 20 19 18 18 17 16 16 15 15 15 14 14 13 13 13 12 12
27 26 26 27 27 26 28 30 29 29 29 29 30 30 30 29 28 28 27 27 26 26 25 24 23 22 21 20 19 18 18 17 17 16 16 15 15 14 14 14 13 13 13 12
27 26 26 27 26 27 28 28 27 27 27 28 29 29 29 29 28 27 27 26 25 25 25 24 23 22 21 20 19 18 18 17 17 16 16 15 15 15 14 14 13 13 13 13
26 25 26 26 26 26 26 25 25 25 25 27 27 27 27 27 27 26 26 26 25 25 24 23 23 22 21 20 19 19 18 17 17 17 16 16 15 15 14 14 14 13 13 13
23 24 25 25 26 26 25 25 24 23 22 25 26 26 26 26 26 26 26 25 25 24 23 23 22 22 21 20 19 19 18 17 17 17 16 16 15 15 14 14 14 13 13 12
24 24 24 24 24 23 23 23 22 21 23 24 25 25 25 25 25 25 25 24 24 23 23 22 22 21 20 20 19 19 18 18 17 17 16 16 15 15 14 14 14 13 13 12
25 25 26 25 23 21 21 20 21 22 23 24 24 24 24 25 25 24 24 23 23 22 22 21 21 20 20 19 19 18 18 17 17 16 16 15 15 15 14 14 13 13 13 12
25 26 25 24 23 22 21 22 22 22 23 23 23 23 23 23 23 23 22 22 21 21 21 21 20 19 19 18 18 18 17 17 16 16 16 15 15 15 14 14 13 13 13 13
26 26 25 24 23 22 22 22 22 22 22 22 22 22 22 21 21 21 20 20 20 20 20 20 19 19 18 18 17 17 16 16 16 15 15 15 14 14 14 14 14 13 13 13
26 25 25 23 23 22 21 21 22 22 21 21 21 20 20 20 19 19 19 19 19 19 18 18 18 18 17 17 17 16 16 15 15 15 14 14 14 14 14 14 14 14 14 13
Wind_Speed
14 12 12 11 9 9 10 8 7 7 5 5 2 7 9 10 10 8 10 11 11 10 11 10 10 10 10 9 8 7 7 6 3 2 1 1 1 0 1 2 6 4 2 4
14 12 12 11 9 9 10 10 8 4 4 4 2 2 5 7 7 5 8 11 12 11 10 10 10 10 11 9 8 8 7 7 4 3 1 1 0 1 1 2 3 3 1 2
13 9 6 9 10 9 8 9 10 8 4 1 2 2 1 2 3 4 7 11 13 13 12 12 11 11 11 10 9 9 8 7 5 3 2 1 0 2 2 1 1 2 1 2
11 9 8 10 9 8 8 7 9 10 6 2 2 1 3 6 6 7 8 10 13 13 13 13 13 12 12 11 10 8 8 6 5 3 2 2 3 3 2 1 0 1 1 3
13 10 10 11 8 8 9 7 8 10 8 4 3 1 4 7 8 10 11 12 13 14 14 14 14 12 11 11 11 9 8 7 5 4 3 3 3 3 3 4 3 2 3 4
14 12 9 10 9 7 8 6 7 8 6 5 8 4 5 8 11 13 13 13 12 14 14 14 13 12 10 10 9 10 9 7 6 5 4 3 3 3 4 5 5 4 3 3
10 9 7 10 11 7 8 6 3 2 1 6 10 3 6 9 9 12 14 15 14 14 14 13 12 12 10 9 9 9 10 8 7 6 5 3 1 2 5 6 5 3 3 3
9 6 4 9 11 8 8 7 5 7 5 2 2 3 9 10 9 10 13 14 14 14 12 12 11 10 10 10 9 9 10 8 7 6 4 2 1 3 4 3 4 4 4 4
7 5 7 11 9 8 8 7 9 10 9 4 1 4 11 10 10 10 12 13 14 14 14 13 13 12 11 10 8 8 9 7 5 4 4 4 4 4 4 3 4 4 3 5
8 9 9 7 7 8 7 9 7 7 5 4 4 4 3 9 11 11 11 12 13 13 13 13 12 11 10 9 8 8 8 7 5 4 4 4 3 3 4 4 4 4 5 5
8 8 9 6 5 8 8 8 6 7 7 6 2 1 6 7 8 11 12 12 12 13 13 12 10 10 10 9 9 8 8 7 6 5 4 2 2 3 3 4 5 5 5 5
5 7 9 7 8 11 10 9 6 6 6 7 4 1 4 4 6 9 10 12 12 11 11 12 12 11 10 9 10 9 9 8 7 6 5 4 4 4 5 6 5 4 5 5
5 5 9 7 9 11 11 14 12 9 7 7 5 1 1 2 2 6 7 9 10 9 9 10 12 11 9 8 8 9 8 8 7 6 6 5 5 5 5 5 5 5 6 6
6 8 11 11 6 7 10 15 13 11 8 6 5 3 4 4 3 4 6 7 8 10 9 10 10 10 9 8 7 7 7 6 6 6 5 5 5 5 4 5 5 5 6 6
7 11 12 13 11 11 15 15 12 10 9 9 7 5 4 2 3 3 4 6 7 9 11 10 10 10 9 8 8 7 7 6 5 5 5 5 4 4 4 5 5 6 6 8
6 9 13 16 16 14 16 13 12 11 10 10 7 3 2 3 4 3 2 3 6 7 9 11 11 11 10 10 9 8 7 7 7 6 5 5 4 4 5 5 6 6 6 6
8 9 13 15 16 16 14 11 11 10 7 6 4 1 3 2 3 2 2 2 3 5 7 9 11 10 10 10 9 9 8 7 7 7 6 5 5 5 5 6 5 5 6 6
9 10 9 14 14 16 11 5 4 5 5 5 3 2 2 3 2 2 3 3 3 3 5 8 10 11 11 10 10 9 9 8 8 8 7 7 6 6 5 5 6 6 5 6
5 7 11 13 15 14 10 6 9 6 4 5 3 4 4 3 1 2 5 5 4 4 4 6 8 10 10 11 11 10 9 9 9 9 8 7 6 5 5 6 6 6 6 6
5 7 11 13 15 14 3 2 3 6 2 7 8 8 8 6 3 4 6 5 4 4 5 6 8 8 9 9 10 10 9 9 9 8 7 6 5 6 6 6 6 6 6 7
8 11 14 14 14 8 4 4 2 1 1 6 7 6 5 6 6 2 1 2 4 4 4 6 6 7 8 8 8 9 9 9 8 6 6 6 6 6 7 7 6 6 7 8
10 10 10 8 9 3 6 5 3 1 4 6 7 6 6 6 7 6 4 3 3 4 4 5 5 6 6 7 7 7 7 6 5 5 6 6 6 7 7 6 7 7 8 9
7 7 5 1 2 3 4 4 1 0 3 6 8 9 8 8 8 7 6 4 2 2 3 3 4 5 6 6 6 7 6 5 5 6 6 6 6 6 7 7 8 8 8 9
6 6 6 1 5 7 6 6 4 4 6 7 8 9 10 10 11 10 9 7 4 2 1 2 3 3 4 5 6 6 5 5 5 6 6 6 7 8 8 8 9 9 8 7
6 4 4 1 5 6 8 7 7 8 8 10 11 12 12 12 12 12 10 9 7 6 4 2 1 1 2 3 4 5 4 5 6 6 6 7 9 10 9 9 9 10 9 9
5 4 3 2 4 5 5 4 6 8 10 11 11 12 13 13 13 12 11 10 9 7 7 5 3 2 2 2 3 4 4 4 5 6 8 9 8 8 8 8 9 13 15 14
Wind_Direction
257 252 278 299 307 312 306 320 319 302 290 291 197 154 174 204 222 206 174 152 154 151 141 139 141 141 137 137 140 143 137 138 152 144 150 125 111 85 128 128 109 91 36 17
262 260 267 294 302 299 301 311 306 287 264 292 33 107 171 202 218 200 161 152 153 149 149 151 155 154 150 151 151 149 154 157 172 139 117 152 68 289 284 77 126 133 96 352
280 286 288 293 294 300 307 303 302 295 271 343 51 333 113 237 245 227 176 160 158 161 163 164 167 164 160 163 169 172 167 164 171 160 202 266 188 257 269 80 126 108 41 311
289 291 283 284 293 295 299 295 303 311 301 284 221 236 225 219 227 215 195 173 167 165 169 172 173 174 173 174 176 169 166 167 164 183 225 264 271 293 319 313 64 78 291 268
283 282 283 284 289 296 300 309 331 342 339 320 263 202 202 192 214 212 194 184 175 170 174 176 178 178 180 181 178 170 163 164 170 194 230 258 293 324 350 4 352 335 273 244
281 292 293 301 295 280 296 317 3 2 357 304 249 193 180 178 198 194 182 182 182 174 175 177 178 174 180 182 174 170 162 167 177 198 226 233 279 317 322 317 300 290 285 267
274 287 290 288 284 290 292 292 328 336 241 246 247 195 141 159 167 167 169 175 177 175 175 175 177 174 179 182 176 167 161 166 178 194 211 224 263 294 270 262 280 301 309 315
292 295 250 250 262 273 272 282 286 292 286 243 253 128 130 128 130 145 158 165 171 175 175 175 178 179 180 180 174 164 157 163 178 193 188 180 237 269 287 355 352 325 312 316
285 285 244 248 261 279 286 286 292 295 309 330 36 106 121 131 139 149 157 164 173 177 178 180 182 183 181 176 164 158 150 157 175 184 160 190 217 245 294 319 283 283 306 303
283 293 280 255 255 253 269 293 302 306 319 324 41 8 147 160 162 163 167 170 175 179 181 181 178 177 167 155 143 141 141 150 163 184 198 216 194 219 240 257 279 293 291 290
294 295 293 298 310 311 273 263 281 303 311 320 354 240 192 177 173 171 175 178 180 184 180 174 166 154 143 144 146 145 147 157 174 200 196 216 234 258 268 264 263 265 270 276
302 295 304 321 347 342 312 292 273 275 296 300 314 114 130 152 169 163 172 176 179 180 176 166 154 145 151 159 160 162 167 175 184 191 185 199 215 233 248 263 271 276 274 272
328 307 296 311 1 357 319 298 286 278 278 287 301 197 247 259 150 150 155 158 160 163 164 155 147 151 159 165 166 167 175 181 184 182 183 198 213 230 243 257 268 272 273 275
304 282 285 288 258 218 249 264 270 272 274 288 297 282 235 243 187 155 148 153 162 162 160 157 149 155 161 163 161 168 182 182 184 181 192 205 216 231 244 255 262 266 270 274
295 283 288 289 268 236 244 249 252 259 269 275 268 259 255 230 133 130 153 163 171 164 165 163 161 161 163 165 167 178 183 179 182 184 208 218 220 228 241 251 257 259 264 274
274 284 293 291 286 278 275 273 269 264 267 275 274 271 89 91 105 107 132 176 178 176 177 171 169 167 171 174 179 184 185 179 174 193 216 222 225 236 244 250 254 258 262 270
268 268 277 283 291 293 283 281 279 278 277 285 291 53 108 91 83 102 152 211 211 191 182 174 173 172 173 178 181 182 183 180 183 196 214 223 226 235 244 262 268 271 273 274
259 266 274 278 281 276 280 292 295 283 282 267 243 199 145 129 121 153 163 175 198 205 183 172 174 173 175 179 182 183 187 186 193 201 211 220 226 236 241 251 260 264 270 275
257 259 266 273 271 268 278 334 345 324 311 334 17 44 41 63 276 214 150 155 176 195 175 166 178 181 177 180 180 180 193 194 201 208 211 218 224 234 242 251 257 263 266 269
263 245 252 261 269 278 300 70 357 341 309 12 42 37 7 343 324 79 127 161 175 172 159 165 178 176 170 176 175 180 195 201 209 212 210 212 218 230 243 252 257 264 265 269
253 243 245 258 270 280 43 88 79 270 10 0 31 32 4 345 331 1 153 157 141 144 157 164 172 170 167 168 169 185 200 208 210 212 210 211 217 225 236 243 245 252 261 267
245 245 240 254 275 309 32 51 64 19 331 343 356 4 5 333 324 346 1 64 118 146 167 172 169 161 156 160 171 191 208 211 206 212 219 222 222 238 250 242 246 248 253 261
271 286 285 220 180 127 67 83 121 328 355 2 360 356 349 343 351 359 17 48 75 140 157 161 165 162 160 165 177 202 211 209 215 221 226 231 236 237 245 251 254 254 251 256
302 319 305 356 113 131 139 135 117 67 38 22 17 14 12 10 8 13 25 29 38 41 78 121 152 177 184 184 195 211 210 206 219 228 231 235 241 244 243 241 250 256 257 259
297 275 270 229 117 97 62 54 56 57 48 40 33 30 26 24 21 21 29 26 24 27 27 55 95 188 202 194 204 208 214 211 222 233 242 248 250 250 249 246 244 247 248 248
317 330 306 90 102 99 87 65 60 62 58 52 46 43 39 35 31 29 30 27 22 24 22 18 9 335 302 252 228 217 213 220 233 247 252 258 260 260 259 258 261 243 238 240
Height
1494 1495 1493 1486 1481 1481 1482 1486 1491 1487 1480 1482 1488 1494 1499 1500 1501 1503 1503 1506 1511 1515 1518 1521 1524 1527 1530 1532 1534 1537 1538 1540 1542 1544 1545 1546 1547 1547 1547 1546 1545 1544 1543 1543
1490 1490 1484 1479 1477 1478 1481 1486 1488 1484 1479 1482 1490 1497 1499 1501 1500 1501 1502 1505 1510 1514 1517 1521 1524 1527 1529 1532 1534 1536 1538 1540 1541 1543 1544 1544 1545 1545 1546 1545 1544 1542 1541 1540
1486 1481 1476 1477 1477 1480 1482 1486 1483 1483 1478 1481 1491 1501 1500 1500 1500 1501 1501 1504 1508 1512 1516 1520 1523 1526 1529 1531 1533 1535 1537 1539 1540 1541 1542 1543 1543 1543 1544 1543 1542 1541 1539 1539
1479 1475 1475 1476 1477 1477 1484 1476 1476 1479 1484 1495 1495 1515 1505 1500 1499 1500 1501 1503 1506 1510 1515 1518 1522 1525 1527 1530 1532 1534 1535 1537 1538 1539 1540 1541 1541 1542 1542 1541 1540 1538 1537 1536
1479 1474 1475 1476 1474 1473 1475 1472 1477 1484 1493 1500 1500 1510 1507 1498 1501 1497 1498 1501 1504 1508 1513 1516 1520 1523 1526 1529 1531 1532 1533 1535 1536 1537 1537 1538 1539 1539 1538 1537 1537 1536 1535 1534
1474 1472 1473 1473 1469 1469 1469 1475 1485 1494 1507 1519 1499 1503 1505 1495 1493 1492 1494 1498 1502 1506 1510 1514 1518 1521 1525 1527 1529 1530 1531 1533 1534 1534 1535 1535 1536 1535 1535 1534 1533 1533 1533 1533
1479 1478 1476 1475 1474 1470 1472 1485 1509 1522 1527 1519 1485 1488 1491 1479 1478 1483 1488 1494 1499 1503 1508 1512 1516 1519 1522 1525 1527 1528 1529 1530 1531 1532 1533 1533 1533 1532 1532 1532 1532 1531 1531 1531
1487 1492 1481 1475 1473 1474 1474 1479 1501 1512 1508 1496 1484 1486 1479 1471 1475 1480 1485 1490 1496 1501 1505 1509 1513 1516 1519 1522 1524 1526 1527 1528 1529 1530 1530 1530 1530 1530 1530 1530 1529 1528 1528 1528
1482 1484 1471 1467 1464 1466 1472 1474 1469 1479 1482 1494 1494 1483 1477 1472 1475 1479 1483 1488 1493 1498 1502 1506 1510 1513 1516 1519 1521 1523 1525 1526 1527 1528 1528 1528 1527 1527 1527 1526 1526 1526 1525 1524
1467 1477 1466 1461 1462 1462 1466 1466 1470 1479 1496 1502 1502 1498 1489 1479 1476 1477 1480 1485 1490 1495 1499 1503 1507 1510 1514 1516 1519 1521 1522 1524 1525 1525 1525 1526 1525 1525 1524 1524 1523 1522 1521 1521
1462 1474 1471 1466 1474 1476 1471 1470 1470 1472 1476 1494 1510 1509 1478 1473 1471 1473 1477 1482 1486 1491 1495 1499 1504 1508 1511 1514 1516 1518 1520 1521 1522 1522 1523 1523 1522 1522 1521 1521 1520 1519 1518 1517
1464 1470 1477 1477 1473 1471 1469 1468 1469 1483 1484 1479 1490 1494 1465 1466 1466 1469 1473 1478 1483 1487 1492 1496 1501 1505 1509 1512 1514 1516 1517 1518 1519 1520 1520 1520 1519 1519 1518 1518 1517 1516 1515 1514
1466 1476 1488 1489 1492 1487 1484 1473 1466 1466 1471 1478 1489 1491 1468 1465 1465 1468 1471 1476 1480 1485 1490 1494 1498 1502 1506 1510 1512 1513 1515 1516 1517 1517 1517 1517 1516 1516 1515 1514 1514 1513 1512 1511
1470 1475 1485 1497 1497 1493 1491 1477 1467 1468 1475 1479 1481 1480 1471 1466 1466 1467 1471 1475 1479 1484 1488 1493 1496 1500 1504 1507 1509 1511 1512 1513 1514 1514 1514 1514 1513 1513 1512 1511 1510 1509 1508 1507
1472 1476 1473 1471 1469 1472 1472 1466 1461 1463 1464 1471 1470 1470 1466 1463 1463 1466 1470 1474 1478 1482 1486 1490 1494 1498 1501 1504 1506 1507 1509 1510 1510 1510 1511 1510 1510 1510 1509 1508 1507 1506 1505 1503
1474 1477 1475 1472 1463 1460 1460 1454 1453 1454 1455 1457 1458 1462 1458 1460 1463 1466 1469 1473 1476 1480 1483 1487 1491 1495 1498 1500 1502 1504 1505 1506 1506 1506 1507 1507 1507 1506 1505 1504 1503 1502 1501 1500
1471 1475 1478 1476 1463 1461 1465 1454 1452 1452 1450 1453 1460 1459 1457 1460 1463 1466 1469 1472 1475 1477 1481 1484 1487 1491 1493 1496 1498 1500 1501 1502 1503 1503 1503 1503 1503 1502 1502 1501 1500 1498 1497 1495
1467 1470 1472 1472 1472 1483 1460 1445 1447 1451 1451 1450 1450 1452 1454 1459 1463 1466 1468 1471 1474 1476 1478 1481 1484 1487 1490 1492 1494 1496 1497 1498 1498 1499 1499 1499 1499 1498 1498 1496 1495 1494 1492 1491
1460 1467 1470 1471 1472 1465 1452 1450 1453 1457 1456 1451 1450 1452 1455 1458 1460 1463 1466 1470 1473 1474 1476 1478 1481 1483 1486 1488 1490 1491 1493 1494 1494 1494 1495 1495 1494 1494 1493 1492 1490 1489 1487 1486
1459 1464 1469 1468 1472 1473 1461 1455 1456 1461 1466 1456 1455 1457 1459 1460 1463 1465 1466 1468 1470 1472 1474 1475 1478 1480 1482 1484 1485 1487 1488 1489 1490 1490 1490 1490 1490 1489 1488 1487 1486 1484 1483 1481
1470 1469 1467 1466 1467 1459 1457 1456 1460 1476 1476 1462 1460 1461 1462 1464 1464 1465 1465 1466 1468 1469 1471 1473 1474 1476 1478 1480 1481 1482 1484 1485 1486 1486 1486 1486 1485 1484 1483 1482 1481 1479 1478 1476
1465 1464 1463 1465 1473 1473 1463 1462 1470 1472 1466 1464 1463 1463 1462 1464 1463 1463 1463 1464 1465 1466 1469 1470 1472 1473 1474 1475 1477 1478 1479 1481 1482 1482 1482 1481 1480 1479 1479 1477 1476 1474 1472 1470
1452 1452 1450 1455 1464 1464 1463 1466 1468 1467 1465 1465 1464 1464 1463 1463 1462 1462 1462 1463 1464 1465 1466 1467 1469 1470 1472 1473 1474 1475 1475 1477 1477 1477 1477 1476 1475 1474 1473 1472 1470 1469 1467 1465
1449 1448 1448 1453 1457 1461 1463 1465 1466 1466 1466 1465 1465 1464 1464 1463 1463 1463 1463 1463 1463 1464 1464 1465 1467 1468 1469 1470 1470 1471 1472 1472 1472 1472 1471 1470 1469 1468 1467 1466 1465 1463 1462 1460
1446 1448 1450 1454 1458 1461 1464 1466 1466 1466 1466 1466 1466 1465 1465 1465 1465 1465 1464 1464 1464 1464 1464 1465 1465 1466 1467 1467 1467 1468 1468 1468 1467 1467 1466 1464 1463 1462 1461 1459 1458 1456 1455 1454
1447 1448 1450 1455 1458 1460 1465 1466 1466 1466 1467 1468 1468 1468 1468 1468 1468 1467 1467 1466 1465 1465 1465 1465 1465 1466 1466 1466 1465 1465 1465 1464 1463 1462 1461 1460 1458 1456 1455 1453 1451 1449 1448 1446